This is the latest recevied weather packets stored in our database for station/object N2PPN. If no packets are shown the sender has not sent any weather packets the latest 10 day(s).
| Time | Temp. | Humidity | Pressure | Rain* | Wind** | Luminosity | Snow |
|---|---|---|---|---|---|---|---|
| 1777743265 | 13.33° C | 73% | 1014.1 hPa | 0 mm | - | 328 W/m² | - |
| 1777742964 | 13.33° C | 77% | 1014.3 hPa | 0 mm | - | 59 W/m² | - |
| 1777742660 | 13.33° C | 74% | 1014.3 hPa | 0 mm | - | 35 W/m² | - |
| 1777742356 | 13.89° C | 73% | 1014.3 hPa | 0 mm | - | 34 W/m² | - |
| 1777742052 | 13.89° C | 70% | 1014 hPa | 0 mm | - | 48 W/m² | - |
| 1777741751 | 14.44° C | 71% | 1014.6 hPa | 0 mm | - | 88 W/m² | - |
| 1777741446 | 13.89° C | 72% | 1014.2 hPa | 0 mm | - | 179 W/m² | - |
| 1777741142 | 13.89° C | 73% | 1014.6 hPa | 0 mm | - | 175 W/m² | - |
| 1777740839 | 13.89° C | 73% | 1014.5 hPa | 0 mm | - | 236 W/m² | - |
| 1777740537 | 13.89° C | 69% | 1014.6 hPa | 0 mm | - | 232 W/m² | - |
| 1777740233 | 14.44° C | 67% | 1014.5 hPa | 0 mm | - | 310 W/m² | - |
| 1777739929 | 14.44° C | 69% | 1014.7 hPa | 0 mm | - | 367 W/m² | - |
| 1777739626 | 14.44° C | 68% | 1014.8 hPa | 0 mm | - | 268 W/m² | - |
| 1777739323 | 13.89° C | 69% | 1014.6 hPa | 0 mm | - | 221 W/m² | - |
| 1777739020 | 13.89° C | 70% | 1014.7 hPa | 0 mm | - | 234 W/m² | - |
| 1777738718 | 13.89° C | 68% | 1014.7 hPa | 0 mm | - | 244 W/m² | - |
| 1777738413 | 14.44° C | 69% | 1014.6 hPa | 0 mm | - | 239 W/m² | - |
| 1777738112 | 13.89° C | 69% | 1014.6 hPa | 0 mm | - | 242 W/m² | - |
| 1777737810 | 13.89° C | 72% | 1014.7 hPa | 0 mm | - | 284 W/m² | - |
| 1777737509 | 13.33° C | 71% | 1014.9 hPa | 0 mm | - | 246 W/m² | - |
| 1777737206 | 13.89° C | 71% | 1015 hPa | 0 mm | - | 257 W/m² | - |
| 1777736902 | 13.89° C | 69% | 1014.7 hPa | 0 mm | - | 369 W/m² | - |
| 1777736293 | 13.33° C | 72% | 1014.9 hPa | 0 mm | - | 240 W/m² | - |
| 1777735688 | 13.89° C | 71% | 1015 hPa | 0 mm | - | 266 W/m² | - |
| 1777735385 | 13.33° C | 72% | 1015 hPa | 0 mm | - | 257 W/m² | - |
* Rain latest hour (hover to see other rain measurements)
** Current wind speed in m/s (hover to see current wind gust speed)